EST,Max TemperatureF,Mean TemperatureF,Min TemperatureF,Max Dew PointF,MeanDew PointF,Min DewpointF,Max Humidity, Mean Humidity, Min Humidity, Max Sea Level PressureIn, Mean Sea Level PressureIn, Min Sea Level PressureIn, Max VisibilityMiles, Mean VisibilityMiles, Min VisibilityMiles, Max Wind SpeedMPH, Mean Wind SpeedMPH, Max Gust SpeedMPH,PrecipitationIn, CloudCover, Events, WindDirDegrees
2014-1-1,54,45,35,43,36,32,92,69,46,30.42,30.31,30.16,10,10,5,10,3,13,0.02,4,Rain,30
2014-1-2,59,53,46,55,48,32,93,90,86,30.14,29.84,29.59,10,6,2,24,4,31,0.86,8,Rain,222
2014-1-3,53,40,26,46,20,11,77,55,33,30.46,30.13,29.64,10,10,10,30,14,39,T,2,,334
2014-1-4,51,38,25,41,28,12,82,67,51,30.50,30.40,30.25,10,10,10,14,8,17,0.00,5,,41
2014-1-5,69,55,41,63,56,37,93,83,73,30.22,30.05,29.86,10,9,1,16,6,21,0.08,7,Rain,163
2014-1-6,69,51,32,63,47,9,93,68,43,30.15,29.82,29.73,10,9,2,29,15,37,0.03,5,Rain,242
2014-1-7,32,25,18,13,0,-7,65,45,25,30.55,30.42,30.19,10,10,10,24,10,31,0.00,0,,318
2014-1-8,43,32,20,20,13,0,75,48,20,30.64,30.56,30.52,10,10,10,8,2,10,0.00,0,,76
2014-1-9,56,43,29,43,29,20,69,58,46,30.55,30.50,30.44,10,10,10,13,6,15,0.00,6,,39
2014-1-10,74,59,43,66,55,39,93,75,57,30.41,30.26,30.11,10,10,6,18,7,26,0.01,6,Rain,139
2014-1-11,76,68,60,69,62,55,93,86,78,30.10,29.86,29.68,10,8,1,31,12,46,0.76,7,Rain-Thunderstorm,220
2014-1-12,61,50,39,57,39,31,90,61,32,30.22,30.03,29.73,10,10,10,22,8,29,T,1,Rain,276
2014-1-13,67,51,35,54,41,33,92,67,42,30.23,30.14,30.00,10,10,10,18,4,23,T,1,,185
2014-1-14,63,54,44,61,53,42,93,86,78,30.01,29.89,29.79,10,8,0,23,6,30,0.29,6,Fog-Rain,242
2014-1-15,61,49,36,50,39,34,100,73,46,29.99,29.95,29.86,10,5,0,12,2,14,0.00,1,Fog,223
2014-1-16,48,40,31,42,33,28,92,77,62,30.09,29.99,29.86,10,8,0,15,7,18,T,4,Fog,322
2014-1-17,59,45,31,47,32,22,92,61,30,30.11,30.02,29.87,10,10,3,17,9,24,0.00,0,,212
2014-1-18,57,43,28,46,24,14,85,58,31,30.10,29.99,29.85,10,10,10,28,12,37,0.05,2,Rain-Thunderstorm,266
2014-1-19,58,43,28,34,27,19,75,55,35,30.08,30.01,29.94,10,10,10,18,8,24,0.00,1,,227
2014-1-20,66,53,39,42,33,23,77,50,22,29.98,29.92,29.83,10,10,10,18,9,22,0.00,0,,220
2014-1-21,65,51,37,46,38,29,71,51,31,29.86,29.66,29.51,10,10,10,28,13,37,T,3,Rain-Thunderstorm,242
2014-1-22,40,33,25,24,19,13,75,54,33,30.13,29.97,29.77,10,10,10,26,8,33,0.00,4,,324
2014-1-23,44,33,21,24,17,11,81,55,28,30.35,30.24,30.12,10,10,9,14,4,17,0.00,0,,313
2014-1-24,33,25,16,18,3,-4,74,48,22,30.59,30.46,30.35,10,10,10,23,11,29,0.00,1,,351
2014-1-25,50,32,14,32,19,9,80,57,33,30.32,29.98,29.72,10,10,10,25,9,35,0.00,2,,226
2014-1-26,55,42,29,37,25,19,70,48,26,30.03,29.96,29.90,10,10,10,17,7,21,0.00,0,,221
2014-1-27,67,56,44,48,38,32,83,58,32,29.99,29.91,29.82,10,10,10,16,8,21,0.00,0,,220
2014-1-28,52,38,24,36,21,12,88,63,38,30.25,30.16,30.02,10,7,2,24,14,29,0.43,7,Rain,12
2014-1-29,28,24,20,20,16,13,84,70,55,30.38,30.23,30.11,10,8,2,24,10,30,0.20,5,Rain-Snow,353
2014-1-30,34,29,24,30,19,10,82,66,50,30.40,30.31,30.21,10,9,5,15,8,20,0.03,6,Rain,8
2014-1-31,58,44,30,40,32,27,92,65,38,30.25,30.20,30.16,10,8,5,9,2,12,0.02,4,Rain,334